Weather History for Abbeville, LA

Change the Weather History Date:

Saturday, September 29, 2012

  Actual Average (KARA) Record (KARA)
Temperature  
Mean Temperature 76 °F 75 °F  
Max Temperature 79 °F 85 °F 95 °F (1953)
Min Temperature 73 °F 65 °F 44 °F (1967)
Degree Days  
Heating Degree Days 0 0  
Month to date heating degree days 0  
Since 1 July heating degree days 0  
Cooling Degree Days 11 10  
Month to date cooling degree days 404  
Year to date cooling degree days 2547  
Growing Degree Days 26 (Base 50)    
Moisture  
Dew Point 76 °F    
Average Humidity 98    
Maximum Humidity 100    
Minimum Humidity 91    
Precipitation  
Precipitation 0.09 in 0.18 in 2.39 in (2012)
Month to date precipitation 4.44  
Year to date precipitation 45.29  
Sea Level Pressure  
Sea Level Pressure 29.90 in    
Wind  
Wind Speed 2 mph ()    
Max Wind Speed 15 mph    
Max Gust Speed 24 mph    
Visibility 9.3 miles    
Events Rain , Thunderstorm    
T = Trace of Precipitation, MM = Missing Value Source: Averaged Metar Reports

Daily Weather History Graph

Daily Weather History Graph

Search for Another Location

Airport:

Trip Planner

Search our weather history database for the weather conditions in past years. The results will help you decide how hot, cold, wet, or windy it might be!

Date:

Astronomy

Sep. 29, 2012 Rise Set
Actual Time 7:00 AM CDT 6:55 PM CDT
Civil Twilight 6:36 AM CDT 7:19 PM CDT
Nautical Twilight 6:09 AM CDT 7:47 PM CDT
Astronomical Twilight 5:41 AM CDT 8:14 PM CDT
Moon 6:32 PM CDT (9/29) 6:30 AM CDT (9/29)
Length of Visible Light 12h 42m
Length of Day
11h 54m
Full, 100% of the Moon is Illuminated
Sep 29
Full
Sep 29
Full
Oct 8
Last Quarter
Oct 15
New
Oct 21
First Quarter

Hourly Weather History & Observations

Time (CDT) Temp. Dew Point Humidity Pressure Visibility Wind Dir Wind Speed Gust Speed Precip Events Conditions
12:15 AM 75.4 °F 75.4 °F 100% 29.97 in 10.0 mi Calm Calm - N/A   Clear
12:35 AM 75.6 °F 75.6 °F 100% 29.97 in 10.0 mi East 3.5 mph - N/A   Clear
12:55 AM 75.6 °F 75.6 °F 100% 29.97 in 10.0 mi East 4.6 mph - N/A   Clear
1:15 AM 75.7 °F 75.7 °F 100% 29.96 in 10.0 mi East 3.5 mph - N/A   Clear
1:35 AM 75.7 °F 75.7 °F 100% 29.96 in 10.0 mi Calm Calm - N/A   Clear
1:55 AM 75.9 °F 75.9 °F 100% 29.97 in 10.0 mi Calm Calm - N/A Rain Light Rain
2:15 AM 76.1 °F 76.1 °F 100% 29.97 in 10.0 mi Calm Calm - N/A   Drizzle
2:35 AM 76.1 °F 76.1 °F 100% 29.96 in 10.0 mi East 3.5 mph - N/A   Drizzle
2:55 AM 76.1 °F 76.1 °F 100% 29.95 in 3.0 mi East 5.8 mph - N/A Rain Light Rain
3:15 AM 76.1 °F 76.1 °F 100% 29.95 in 7.0 mi ENE 3.5 mph - 0.01 in   Drizzle
3:35 AM 76.1 °F 76.1 °F 100% 29.95 in 4.0 mi NE 3.5 mph - 0.01 in Rain Rain
3:55 AM 76.1 °F 76.1 °F 100% 29.94 in 10.0 mi NE 4.6 mph - 0.02 in   Overcast
4:15 AM 76.1 °F 76.1 °F 100% 29.92 in 10.0 mi ENE 4.6 mph - N/A   Scattered Clouds
4:35 AM 76.1 °F 76.1 °F 100% 29.93 in 10.0 mi Calm Calm - N/A   Clear
4:55 AM 76.1 °F 76.1 °F 100% 29.93 in 7.0 mi North 3.5 mph - N/A   Light Drizzle
5:15 AM 75.7 °F 75.7 °F 100% 29.93 in 7.0 mi Calm Calm - N/A   Overcast
5:35 AM 75.7 °F 75.7 °F 100% 29.93 in 5.0 mi South 5.8 mph - 0.01 in   Light Drizzle
5:55 AM 74.3 °F 74.3 °F 100% 29.94 in 7.0 mi SE 4.6 mph - 0.01 in Rain Rain
6:15 AM 73.8 °F 73.8 °F 100% 29.94 in 10.0 mi Calm Calm - N/A   Overcast
6:35 AM 73.8 °F 73.8 °F 100% 29.93 in 10.0 mi Calm Calm - N/A Rain Rain
6:55 AM 74.1 °F 74.1 °F 100% 29.93 in 10.0 mi Calm Calm - 0.01 in Rain , Thunderstorm Rain
7:15 AM 74.1 °F 74.1 °F 100% 29.94 in 10.0 mi Calm Calm - N/A   Overcast
7:35 AM 73.9 °F 73.9 °F 100% 29.95 in 10.0 mi Calm Calm - N/A Thunderstorm Mostly Cloudy
7:55 AM 73.8 °F 73.8 °F 100% 29.95 in 10.0 mi Calm Calm - N/A   Drizzle
8:15 AM 74.3 °F 74.3 °F 100% 29.95 in 10.0 mi Calm Calm - 0.01 in   Mostly Cloudy
8:35 AM 74.8 °F 74.8 °F 100% 29.95 in 10.0 mi Calm Calm - 0.01 in   Scattered Clouds
8:55 AM 75.2 °F 75.2 °F 100% 29.95 in 10.0 mi Calm Calm - 0.01 in   Clear
9:15 AM 75.2 °F 75.2 °F 100% 29.95 in 10.0 mi Calm Calm - N/A   Mostly Cloudy
9:35 AM 75.6 °F 75.6 °F 100% 29.95 in 10.0 mi Calm Calm - N/A   Scattered Clouds
9:55 AM 76.1 °F 76.1 °F 100% 29.95 in 10.0 mi Calm Calm - N/A   Scattered Clouds
10:15 AM 76.3 °F 76.3 °F 100% 29.96 in 10.0 mi Calm Calm - N/A   Light Drizzle
10:35 AM 77.0 °F 77.0 °F 100% 29.96 in 10.0 mi Calm Calm - N/A   Drizzle
10:55 AM 77.4 °F 77.4 °F 100% 29.95 in 10.0 mi Calm Calm - 0.01 in   Light Drizzle
11:15 AM 77.9 °F 77.9 °F 100% 29.95 in 10.0 mi Calm Calm - N/A   Overcast
11:35 AM 78.6 °F 78.3 °F 99% 29.95 in 10.0 mi East 3.5 mph - N/A   Overcast
11:55 AM 79.0 °F 77.7 °F 96% 29.94 in 10.0 mi Calm Calm - N/A   Overcast
12:15 PM 79.7 °F 77.2 °F 92% 29.94 in 10.0 mi East 3.5 mph - N/A   Overcast
12:35 PM 79.7 °F 77.2 °F 92% 29.94 in 10.0 mi Calm Calm - N/A   Overcast
12:55 PM 79.7 °F 77.4 °F 93% 29.93 in 10.0 mi Calm Calm - N/A   Overcast
1:15 PM 79.7 °F 77.5 °F 93% 29.92 in 10.0 mi Calm Calm - 0.01 in   Overcast
1:35 PM 79.9 °F 77.5 °F 93% 29.90 in 10.0 mi Calm Calm - 0.01 in   Light Drizzle
1:55 PM 79.9 °F 77.4 °F 92% 29.90 in 10.0 mi Calm Calm - 0.01 in   Overcast
2:15 PM 79.7 °F 77.7 °F 94% 29.89 in 10.0 mi Calm Calm - N/A   Overcast
2:35 PM 78.8 °F 77.2 °F 95% 29.88 in 7.0 mi South 5.8 mph - N/A Rain Light Rain
2:55 PM 77.2 °F 76.5 °F 98% 29.87 in 5.0 mi Calm Calm - N/A   Drizzle
3:15 PM 77.5 °F 76.1 °F 95% 29.87 in 10.0 mi Calm Calm - N/A   Overcast
3:35 PM 78.1 °F 75.4 °F 91% 29.86 in 10.0 mi Calm Calm - N/A   Overcast
3:55 PM 77.9 °F 75.7 °F 93% 29.85 in 10.0 mi Calm Calm - N/A   Overcast
4:15 PM 78.1 °F 76.8 °F 96% 29.84 in 10.0 mi ESE 4.6 mph - N/A   Overcast
4:35 PM 78.1 °F 76.3 °F 94% 29.84 in 10.0 mi Calm Calm - N/A   Overcast
4:55 PM 78.4 °F 76.5 °F 94% 29.83 in 10.0 mi SE 3.5 mph - 0.01 in   Mostly Cloudy
5:15 PM 78.8 °F 76.6 °F 93% 29.82 in 10.0 mi Calm Calm - N/A   Mostly Cloudy
5:35 PM 79.0 °F 77.0 °F 94% 29.83 in 10.0 mi Calm Calm - N/A   Mostly Cloudy
5:55 PM 79.0 °F 77.9 °F 96% 29.83 in 10.0 mi Calm Calm - N/A   Mostly Cloudy
6:15 PM 79.0 °F 78.6 °F 99% 29.83 in 10.0 mi Calm Calm - N/A   Mostly Cloudy
6:35 PM 78.4 °F 78.1 °F 99% 29.84 in 10.0 mi ESE 3.5 mph - N/A   Scattered Clouds
6:55 PM 77.9 °F 77.4 °F 98% 29.84 in 10.0 mi ESE 3.5 mph - N/A   Scattered Clouds
7:15 PM 77.5 °F 77.2 °F 99% 29.84 in 10.0 mi East 3.5 mph - N/A   Scattered Clouds
7:35 PM 77.4 °F 77.2 °F 99% 29.84 in 10.0 mi East 3.5 mph - N/A   Mostly Cloudy
7:55 PM 77.2 °F 77.2 °F 100% 29.84 in 10.0 mi Calm Calm - N/A   Mostly Cloudy
8:15 PM 77.2 °F 77.2 °F 100% 29.84 in 10.0 mi East 4.6 mph - N/A   Mostly Cloudy
8:35 PM 77.0 °F 77.0 °F 100% 29.84 in 10.0 mi East 4.6 mph - N/A   Scattered Clouds
8:55 PM 77.0 °F 77.0 °F 100% 29.84 in 10.0 mi East 4.6 mph - N/A   Scattered Clouds
9:15 PM 77.0 °F 77.0 °F 100% 29.84 in 10.0 mi East 4.6 mph - N/A   Mostly Cloudy
9:35 PM 77.0 °F 77.0 °F 100% 29.84 in 10.0 mi East 3.5 mph - N/A   Overcast
9:55 PM 77.0 °F 77.0 °F 100% 29.84 in 10.0 mi ESE 6.9 mph - 0.01 in   Mostly Cloudy
10:15 PM 77.0 °F 77.0 °F 100% 29.83 in 10.0 mi East 6.9 mph - N/A   Overcast
10:35 PM 77.0 °F 77.0 °F 100% 29.83 in 10.0 mi ESE 4.6 mph - N/A   Overcast
10:55 PM 77.0 °F 77.0 °F 100% 29.83 in 10.0 mi ESE 5.8 mph - N/A Rain Rain
11:15 PM 77.0 °F 77.0 °F 100% 29.82 in 10.0 mi ESE 4.6 mph - N/A   Overcast
11:35 PM 76.8 °F 76.8 °F 100% 29.83 in 7.0 mi WSW 15.0 mph 19.6 mph N/A Rain , Thunderstorm Light Thunderstorms and Rain
11:55 PM 73.0 °F 73.0 °F 100% 29.82 in 1.5 mi SSE 10.4 mph 24.2 mph N/A Rain , Thunderstorm Heavy Thunderstorms and Rain